Time,TemperatureF,DewpointF,PressureIn,WindDirection,WindDirectionDegrees,WindSpeedMPH,WindSpeedGustMPH,Humidity,HourlyPrecipIn,Conditions,Clouds,dailyrainin,SoftwareType,DateUTC
2013-06-08 00:02:00,70.0,69.0,29.91,SSW,205,0.0,0.0,98,0.00,,,0.53,,2013-06-08 05:02:00,
2013-06-08 00:12:00,70.0,69.0,29.91,SSW,205,0.0,0.0,98,0.00,,,0.53,,2013-06-08 05:12:00,
2013-06-08 00:22:00,70.0,69.0,29.91,SSW,207,0.0,0.0,98,0.00,,,0.53,,2013-06-08 05:22:00,
2013-06-08 00:32:00,70.0,69.0,29.92,SSW,207,0.0,0.0,98,0.00,,,0.01,,2013-06-08 05:32:00,
2013-06-08 00:42:00,70.0,69.0,29.92,SSW,207,0.0,0.0,98,0.00,,,0.01,,2013-06-08 05:42:00,
2013-06-08 00:52:00,70.0,69.0,29.91,SSW,206,0.0,0.0,98,0.00,,,0.01,,2013-06-08 05:52:00,
2013-06-08 01:02:00,70.0,69.0,29.91,SSW,207,0.0,0.0,98,0.00,,,0.01,,2013-06-08 06:02:00,
2013-06-08 01:12:00,70.0,69.0,29.91,SSW,207,0.0,0.0,98,0.00,,,0.01,,2013-06-08 06:12:00,
2013-06-08 01:22:00,70.0,69.0,29.91,SSW,205,0.0,0.0,98,0.00,,,0.01,,2013-06-08 06:22:00,
2013-06-08 01:32:00,70.0,69.0,29.91,SSW,205,0.0,0.0,98,0.00,,,0.00,,2013-06-08 06:32:00,
2013-06-08 01:42:00,70.0,69.0,29.91,SSW,205,0.0,0.0,98,0.00,,,0.00,,2013-06-08 06:42:00,
2013-06-08 01:52:00,69.0,68.0,29.92,SSW,206,0.0,0.0,98,0.00,,,0.00,,2013-06-08 06:52:00,
2013-06-08 02:02:00,69.0,68.0,29.92,SSW,207,0.0,0.0,98,0.00,,,0.00,,2013-06-08 07:02:00,
2013-06-08 02:12:00,69.0,68.0,29.92,SSW,207,0.0,0.0,98,0.00,,,0.00,,2013-06-08 07:12:00,
2013-06-08 02:22:00,69.0,68.0,29.92,SSW,207,0.0,0.0,98,0.00,,,0.00,,2013-06-08 07:22:00,
2013-06-08 02:32:00,69.0,68.0,29.92,SSW,205,0.0,0.0,98,0.00,,,0.00,,2013-06-08 07:32:00,
2013-06-08 02:42:00,69.0,68.0,29.92,SSW,205,0.0,0.0,98,0.00,,,0.00,,2013-06-08 07:42:00,
2013-06-08 02:52:00,69.0,68.0,29.92,SSW,207,0.0,0.0,98,0.00,,,0.00,,2013-06-08 07:52:00,
2013-06-08 03:02:00,68.0,68.0,29.92,SSW,207,0.0,0.0,99,0.00,,,0.00,,2013-06-08 08:02:00,
2013-06-08 03:12:00,68.0,68.0,29.92,SSW,207,0.0,0.0,99,0.00,,,0.00,,2013-06-08 08:12:00,
2013-06-08 03:22:00,68.0,67.0,29.92,SSW,207,0.0,0.0,98,0.00,,,0.00,,2013-06-08 08:22:00,
2013-06-08 03:32:00,68.0,68.0,29.91,SSW,207,0.0,0.0,99,0.00,,,0.00,,2013-06-08 08:32:00,
2013-06-08 03:42:00,68.0,68.0,29.91,SSW,207,0.0,0.0,99,0.00,,,0.00,,2013-06-08 08:42:00,
2013-06-08 03:53:00,68.0,68.0,29.91,SSW,207,0.0,0.0,99,0.00,,,0.00,,2013-06-08 08:53:00,
2013-06-08 04:02:00,68.0,68.0,29.91,SSW,207,0.0,0.0,99,0.00,,,0.00,,2013-06-08 09:02:00,
2013-06-08 04:12:00,68.0,68.0,29.91,SSW,207,0.0,0.0,99,0.00,,,0.00,,2013-06-08 09:12:00,
2013-06-08 04:22:00,68.0,68.0,29.91,SSW,207,0.0,0.0,99,0.00,,,0.00,,2013-06-08 09:22:00,
2013-06-08 04:33:00,68.0,68.0,29.90,SSW,207,0.0,0.0,99,0.00,,,0.00,,2013-06-08 09:33:00,
2013-06-08 04:43:00,68.0,68.0,29.90,SSW,207,0.0,0.0,99,0.00,,,0.00,,2013-06-08 09:43:00,
2013-06-08 04:53:00,68.0,68.0,29.90,SSW,207,0.0,0.0,99,0.00,,,0.00,,2013-06-08 09:53:00,
2013-06-08 05:03:00,68.0,68.0,29.91,SSW,207,0.0,0.0,99,0.00,,,0.00,,2013-06-08 10:03:00,
2013-06-08 05:12:00,68.0,68.0,29.91,SSW,207,0.0,0.0,99,0.00,,,0.00,,2013-06-08 10:12:00,
2013-06-08 05:22:00,68.0,68.0,29.90,SSW,207,0.0,0.0,99,0.00,,,0.00,,2013-06-08 10:22:00,
2013-06-08 05:33:00,68.0,68.0,29.91,SSW,205,0.0,0.0,99,0.00,,,0.00,,2013-06-08 10:33:00,
2013-06-08 05:43:00,68.0,68.0,29.91,SSW,205,0.0,0.0,99,0.00,,,0.00,,2013-06-08 10:43:00,
2013-06-08 05:52:00,67.0,67.0,29.91,SSW,207,0.0,0.0,99,0.00,,,0.00,,2013-06-08 10:52:00,
2013-06-08 06:02:00,67.0,67.0,29.92,SSW,207,0.0,0.0,99,0.00,,,0.00,,2013-06-08 11:02:00,
2013-06-08 06:12:00,67.0,67.0,29.92,SSW,207,0.0,0.0,99,0.00,,,0.00,,2013-06-08 11:12:00,
2013-06-08 06:22:00,67.0,67.0,29.92,SSW,207,0.0,0.0,99,0.00,,,0.00,,2013-06-08 11:22:00,
2013-06-08 06:32:00,67.0,67.0,29.92,SSW,207,0.0,0.0,99,0.00,,,0.00,,2013-06-08 11:32:00,
2013-06-08 06:42:00,67.0,67.0,29.92,SSW,207,0.0,0.0,99,0.00,,,0.00,,2013-06-08 11:42:00,
2013-06-08 06:52:00,67.0,67.0,29.93,SSW,207,0.0,0.0,99,0.00,,,0.00,,2013-06-08 11:52:00,
2013-06-08 07:02:00,68.0,68.0,29.94,SSW,207,0.0,0.0,100,0.00,,,0.00,,2013-06-08 12:02:00,
2013-06-08 07:12:00,68.0,68.0,29.94,SSW,207,0.0,0.0,100,0.00,,,0.00,,2013-06-08 12:12:00,
2013-06-08 07:22:00,68.0,68.0,29.94,WSW,250,0.0,2.0,100,0.00,,,0.00,,2013-06-08 12:22:00,
2013-06-08 07:32:00,69.0,69.0,29.95,ESE,120,0.0,1.0,99,0.00,,,0.00,,2013-06-08 12:32:00,
2013-06-08 07:42:00,69.0,69.0,29.95,ESE,120,0.0,1.0,99,0.00,,,0.00,,2013-06-08 12:42:00,
2013-06-08 07:52:00,69.0,69.0,29.95,ESE,120,0.0,1.0,99,0.00,,,0.00,,2013-06-08 12:52:00,
2013-06-08 08:02:00,70.0,69.0,29.95,ENE,72,0.0,2.0,97,0.00,,,0.00,,2013-06-08 13:02:00,
2013-06-08 08:12:00,70.0,69.0,29.95,ENE,72,0.0,2.0,97,0.00,,,0.00,,2013-06-08 13:12:00,
2013-06-08 08:22:00,72.0,70.0,29.96,ESE,117,0.0,3.0,94,0.00,,,0.00,,2013-06-08 13:22:00,
2013-06-08 08:32:00,72.0,70.0,29.96,ESE,103,0.0,1.0,93,0.00,,,0.00,,2013-06-08 13:32:00,
2013-06-08 08:42:00,72.0,70.0,29.96,ESE,103,0.0,1.0,93,0.00,,,0.00,,2013-06-08 13:42:00,
2013-06-08 08:52:00,74.0,71.0,29.96,East,99,0.0,2.0,90,0.00,,,0.00,,2013-06-08 13:52:00,
2013-06-08 09:02:00,75.0,72.0,29.96,ENE,60,0.0,3.0,89,0.00,,,0.00,,2013-06-08 14:02:00,
2013-06-08 09:12:00,75.0,72.0,29.96,ENE,60,0.0,3.0,89,0.00,,,0.00,,2013-06-08 14:12:00,
2013-06-08 09:22:00,77.0,72.0,29.96,ESE,103,0.0,2.0,85,0.00,,,0.00,,2013-06-08 14:22:00,
2013-06-08 09:32:00,79.0,73.0,29.96,East,91,0.0,1.0,82,0.00,,,0.00,,2013-06-08 14:32:00,
2013-06-08 09:42:00,79.0,73.0,29.96,East,91,0.0,1.0,82,0.00,,,0.00,,2013-06-08 14:42:00,
2013-06-08 09:52:00,80.0,73.0,29.96,East,94,0.0,1.0,80,0.00,,,0.00,,2013-06-08 14:52:00,
2013-06-08 10:02:00,81.0,74.0,29.96,East,99,0.0,1.0,79,0.00,,,0.00,,2013-06-08 15:02:00,
2013-06-08 10:12:00,81.0,74.0,29.96,East,99,0.0,1.0,79,0.00,,,0.00,,2013-06-08 15:12:00,
2013-06-08 10:22:00,83.0,74.0,29.96,ENE,78,0.0,3.0,75,0.00,,,0.00,,2013-06-08 15:22:00,
2013-06-08 10:32:00,83.0,74.0,29.96,ENE,78,0.0,3.0,75,0.00,,,0.00,,2013-06-08 15:32:00,
2013-06-08 10:42:00,83.0,74.0,29.96,ENE,78,0.0,3.0,75,0.00,,,0.00,,2013-06-08 15:42:00,
2013-06-08 10:53:00,83.0,74.0,29.97,East,79,0.0,3.0,74,0.00,,,0.00,,2013-06-08 15:53:00,
2013-06-08 11:03:00,83.0,75.0,29.97,SSE,149,0.0,0.0,76,0.00,,,0.00,,2013-06-08 16:03:00,
2013-06-08 11:12:00,83.0,75.0,29.97,SSE,149,0.0,0.0,76,0.00,,,0.00,,2013-06-08 16:12:00,
2013-06-08 11:23:00,84.0,75.0,29.97,West,262,0.0,1.0,74,0.00,,,0.00,,2013-06-08 16:23:00,
2013-06-08 11:33:00,84.0,75.0,29.96,ENE,75,0.0,1.0,75,0.00,,,0.00,,2013-06-08 16:33:00,
2013-06-08 11:42:00,84.0,75.0,29.96,ENE,75,0.0,1.0,75,0.00,,,0.00,,2013-06-08 16:42:00,
2013-06-08 11:53:00,84.0,74.0,29.96,West,272,0.0,2.0,73,0.00,,,0.00,,2013-06-08 16:53:00,
2013-06-08 12:02:00,85.0,75.0,29.96,SW,224,0.0,2.0,72,0.00,,,0.00,,2013-06-08 17:02:00,
2013-06-08 12:12:00,85.0,75.0,29.96,SW,224,0.0,2.0,72,0.00,,,0.00,,2013-06-08 17:12:00,
2013-06-08 12:22:00,85.0,75.0,29.96,East,93,0.0,1.0,72,0.00,,,0.00,,2013-06-08 17:22:00,
2013-06-08 12:32:00,86.0,75.0,29.96,West,277,0.0,1.0,70,0.00,,,0.00,,2013-06-08 17:32:00,
2013-06-08 12:42:00,86.0,75.0,29.96,West,277,0.0,1.0,70,0.00,,,0.00,,2013-06-08 17:42:00,
2013-06-08 12:52:00,86.0,74.0,29.96,West,266,0.0,1.0,67,0.00,,,0.00,,2013-06-08 17:52:00,
2013-06-08 13:02:00,87.0,75.0,29.95,SW,214,0.0,2.0,68,0.00,,,0.00,,2013-06-08 18:02:00,
2013-06-08 13:12:00,87.0,75.0,29.95,SW,214,0.0,2.0,68,0.00,,,0.00,,2013-06-08 18:12:00,
2013-06-08 13:22:00,88.0,76.0,29.95,East,88,0.0,2.0,68,0.00,,,0.00,,2013-06-08 18:22:00,
2013-06-08 13:32:00,88.0,74.0,29.95,WSW,247,0.0,2.0,64,0.00,,,0.00,,2013-06-08 18:32:00,
2013-06-08 13:42:00,88.0,74.0,29.95,WSW,247,0.0,2.0,64,0.00,,,0.00,,2013-06-08 18:42:00,
2013-06-08 13:52:00,88.0,75.0,29.95,WSW,255,0.0,1.0,65,0.00,,,0.00,,2013-06-08 18:52:00,
2013-06-08 14:03:00,88.0,75.0,29.95,WSW,255,0.0,1.0,65,0.00,,,0.00,,2013-06-08 19:03:00,
2013-06-08 14:12:00,88.0,75.0,29.95,WSW,255,0.0,1.0,65,0.00,,,0.00,,2013-06-08 19:12:00,
2013-06-08 14:22:00,86.0,75.0,29.95,West,271,0.0,1.0,69,0.00,,,0.00,,2013-06-08 19:22:00,
2013-06-08 14:32:00,88.0,75.0,29.93,ENE,78,0.0,1.0,66,0.00,,,0.00,,2013-06-08 19:32:00,
2013-06-08 14:42:00,88.0,75.0,29.93,ENE,78,0.0,1.0,66,0.00,,,0.00,,2013-06-08 19:42:00,
2013-06-08 14:53:00,88.0,74.0,29.93,WSW,240,0.0,1.0,64,0.00,,,0.00,,2013-06-08 19:53:00,
2013-06-08 15:02:00,87.0,71.0,29.93,NNW,345,0.0,2.0,60,0.00,,,0.00,,2013-06-08 20:02:00,
2013-06-08 15:12:00,87.0,71.0,29.93,NNW,345,0.0,2.0,60,0.00,,,0.00,,2013-06-08 20:12:00,
2013-06-08 15:22:00,88.0,72.0,29.92,WNW,293,0.0,1.0,59,0.00,,,0.00,,2013-06-08 20:22:00,
2013-06-08 15:32:00,89.0,72.0,29.91,NNW,335,0.0,1.0,58,0.00,,,0.00,,2013-06-08 20:32:00,
2013-06-08 15:42:00,89.0,72.0,29.91,NNW,335,0.0,1.0,58,0.00,,,0.00,,2013-06-08 20:42:00,
2013-06-08 15:52:00,90.0,73.0,29.91,SE,136,0.0,2.0,58,0.00,,,0.00,,2013-06-08 20:52:00,
2013-06-08 16:02:00,91.0,70.0,29.91,West,266,0.0,1.0,50,0.00,,,0.00,,2013-06-08 21:02:00,
2013-06-08 16:12:00,91.0,70.0,29.91,West,266,0.0,1.0,50,0.00,,,0.00,,2013-06-08 21:12:00,
2013-06-08 16:22:00,89.0,71.0,29.91,West,260,0.0,1.0,55,0.00,,,0.00,,2013-06-08 21:22:00,
2013-06-08 16:33:00,89.0,71.0,29.90,NE,40,0.0,3.0,56,0.00,,,0.00,,2013-06-08 21:33:00,
2013-06-08 16:43:00,89.0,71.0,29.90,NE,40,0.0,3.0,56,0.00,,,0.00,,2013-06-08 21:43:00,
2013-06-08 16:53:00,89.0,73.0,29.90,West,263,0.0,1.0,60,0.00,,,0.00,,2013-06-08 21:53:00,
2013-06-08 17:02:00,86.0,73.0,29.90,East,98,0.0,1.0,65,0.00,,,0.00,,2013-06-08 22:02:00,
2013-06-08 17:12:00,86.0,73.0,29.90,East,98,0.0,1.0,65,0.00,,,0.00,,2013-06-08 22:12:00,
2013-06-08 17:22:00,86.0,73.0,29.90,East,98,0.0,1.0,65,0.00,,,0.00,,2013-06-08 22:22:00,
2013-06-08 17:33:00,85.0,74.0,29.91,East,98,0.0,0.0,69,0.00,,,0.00,,2013-06-08 22:33:00,
2013-06-08 17:42:00,83.0,74.0,29.91,East,98,0.0,0.0,75,0.00,,,0.00,,2013-06-08 22:42:00,
2013-06-08 17:52:00,83.0,74.0,29.91,East,98,0.0,0.0,75,0.00,,,0.00,,2013-06-08 22:52:00,
2013-06-08 18:02:00,81.0,75.0,29.91,East,97,0.0,0.0,81,0.00,,,0.00,,2013-06-08 23:02:00,
2013-06-08 18:12:00,81.0,75.0,29.91,East,97,0.0,0.0,81,0.00,,,0.00,,2013-06-08 23:12:00,
2013-06-08 18:22:00,80.0,75.0,29.93,East,97,0.0,0.0,85,0.00,,,0.00,,2013-06-08 23:22:00,
2013-06-08 18:32:00,80.0,76.0,29.91,East,97,0.0,0.0,88,0.00,,,0.00,,2013-06-08 23:32:00,
2013-06-08 18:42:00,80.0,76.0,29.91,East,97,0.0,0.0,88,0.00,,,0.00,,2013-06-08 23:42:00,
2013-06-08 18:52:00,78.0,71.0,29.93,West,269,0.0,5.0,80,0.00,,,0.00,,2013-06-08 23:52:00,
2013-06-08 19:02:00,76.0,69.0,29.95,East,91,3.0,7.0,80,0.00,,,0.00,,2013-06-09 00:02:00,
2013-06-08 19:12:00,76.0,69.0,29.95,East,91,3.0,7.0,80,0.00,,,0.00,,2013-06-09 00:12:00,
2013-06-08 19:22:00,75.0,68.0,29.96,East,95,0.0,1.0,80,0.00,,,0.00,,2013-06-09 00:22:00,
2013-06-08 19:32:00,73.0,68.0,29.96,East,97,0.0,2.0,84,0.00,,,0.00,,2013-06-09 00:32:00,
2013-06-08 19:42:00,73.0,68.0,29.96,East,97,0.0,2.0,84,0.00,,,0.00,,2013-06-09 00:42:00,
2013-06-08 19:52:00,73.0,68.0,29.95,South,186,0.0,1.0,85,0.00,,,0.00,,2013-06-09 00:52:00,
2013-06-08 20:02:00,73.0,69.0,29.94,South,186,0.0,0.0,87,0.00,,,0.00,,2013-06-09 01:02:00,
2013-06-08 20:12:00,73.0,69.0,29.94,South,186,0.0,0.0,87,0.00,,,0.00,,2013-06-09 01:12:00,
2013-06-08 20:22:00,72.0,68.0,29.94,South,186,0.0,0.0,88,0.00,,,0.00,,2013-06-09 01:22:00,
2013-06-08 20:32:00,72.0,69.0,29.93,South,186,0.0,0.0,90,0.00,,,0.00,,2013-06-09 01:32:00,
2013-06-08 20:42:00,72.0,69.0,29.93,South,186,0.0,0.0,90,0.00,,,0.00,,2013-06-09 01:42:00,
2013-06-08 20:52:00,72.0,69.0,29.92,South,186,0.0,0.0,91,0.00,,,0.00,,2013-06-09 01:52:00,
2013-06-08 21:02:00,71.0,69.0,29.88,ESE,106,0.0,3.0,94,0.00,,,0.00,,2013-06-09 02:02:00,
2013-06-08 21:12:00,71.0,69.0,29.88,ESE,106,0.0,3.0,94,0.00,,,0.00,,2013-06-09 02:12:00,
2013-06-08 21:22:00,71.0,69.0,29.88,ESE,106,0.0,3.0,94,0.00,,,0.00,,2013-06-09 02:22:00,
2013-06-08 21:32:00,71.0,70.0,29.89,East,89,0.0,0.0,96,0.00,,,0.00,,2013-06-09 02:32:00,
2013-06-08 21:42:00,71.0,70.0,29.89,East,89,0.0,0.0,96,0.00,,,0.00,,2013-06-09 02:42:00,
2013-06-08 21:52:00,70.0,69.0,29.91,East,91,0.0,0.0,96,0.00,,,0.00,,2013-06-09 02:52:00,
2013-06-08 22:02:00,70.0,69.0,29.92,East,91,0.0,0.0,97,0.00,,,0.00,,2013-06-09 03:02:00,
2013-06-08 22:12:00,70.0,69.0,29.92,East,91,0.0,0.0,97,0.00,,,0.00,,2013-06-09 03:12:00,
2013-06-08 22:22:00,70.0,69.0,29.93,East,90,0.0,1.0,97,0.00,,,0.00,,2013-06-09 03:22:00,
2013-06-08 22:33:00,69.0,68.0,29.95,East,91,0.0,1.0,97,0.00,,,0.00,,2013-06-09 03:33:00,
2013-06-08 22:43:00,69.0,68.0,29.95,East,91,0.0,1.0,97,0.00,,,0.00,,2013-06-09 03:43:00,
2013-06-08 22:53:00,69.0,68.0,29.96,ESE,108,0.0,1.0,97,0.00,,,0.00,,2013-06-09 03:53:00,
2013-06-08 23:03:00,69.0,68.0,29.97,ESE,106,0.0,1.0,97,0.00,,,0.00,,2013-06-09 04:03:00,
2013-06-08 23:12:00,69.0,68.0,29.97,ESE,106,0.0,1.0,97,0.00,,,0.00,,2013-06-09 04:12:00,
2013-06-08 23:23:00,69.0,68.0,29.98,East,91,0.0,1.0,97,0.00,,,0.00,,2013-06-09 04:23:00,
2013-06-08 23:33:00,69.0,68.0,29.98,East,91,0.0,0.0,97,0.00,,,0.00,,2013-06-09 04:33:00,
2013-06-08 23:43:00,69.0,68.0,29.98,East,91,0.0,0.0,97,0.00,,,0.00,,2013-06-09 04:43:00,
2013-06-08 23:52:00,68.0,67.0,29.98,East,90,0.0,0.0,97,0.00,,,0.00,,2013-06-09 04:52:00,